Location: Carri�res
(48.9069°N, 2.1792°E)
Time: 05:34:55
(UTC+00:00)

SeaSat 1 - Pass Details

Date: 18 May 2021
Orbit: 744 x 747 km, 108.0° (Epoch: 12 June)

Event Time Altitude Azimuth Distance (km) Brightness Sun altitude
Rises 22:59:57 0° 48° (NE) 3,200 6.1 -20.5°
Reaches altitude 10° 23:04:21 10° 86° (E) 2,268 4.9 -20.6°
Maximum altitude 23:05:30 11° 100° (E) 2,213 4.7 -20.7°
Enters shadow 23:05:37 11° 101° (E) 2,213 4.7 -20.7°
